Santiago De Compostela, Spain

10:47 PM CEST on August 26, 2016 (GMT +0200)
Santiago

Weather History for LEST - October, 2012

Change the Weather History Date:

Saturday, October 20, 2012

  Actual Average Record
Temperature  
Mean Temperature 52 °F -  
Max Temperature 62 °F 57 °F 84 °F (2014)
Min Temperature 42 °F 44 °F 35 °F (1998)
Degree Days  
Heating Degree Days 13    
Growing Degree Days 2 (Base 50)    
Moisture  
Dew Point 46 °F    
Average Humidity 84    
Maximum Humidity 100    
Minimum Humidity 55    
Precipitation  
Precipitation 0.00 in - - ()
Sea Level Pressure  
Sea Level Pressure 29.91 in    
Wind  
Wind Speed 3 mph ()    
Max Wind Speed 6 mph    
Max Gust Speed -    
Visibility 4.8 miles    
Events      
Averages and records for this station are not official NWS values.
T = Trace of Precipitation, MM = Missing Value Source: Averaged Metar Reports

Daily Weather History Graph

Daily Weather History Graph

Search for Another Location

Airport or City:

Trip Planner

Search our weather history database for the weather conditions in past years. The results will help you decide how hot, cold, wet, or windy it might be!

Date:

Astronomy

Oct. 20, 2012 Rise Set
Actual Time 8:53 AM CEST 7:42 PM CEST
Civil Twilight 8:24 AM CEST 8:11 PM CEST
Nautical Twilight 7:51 AM CEST 8:44 PM CEST
Astronomical Twilight 7:18 AM CEST 9:17 PM CEST
Moon 2:22 PM CEST (10/20) No Moon Set
Length of Visible Light 11h 46m
Length of Day
10h 49m
Waxing Crescent, 31% of the Moon is Illuminated
Oct 20
Waxing Crescent
Oct 22
First Quarter
Oct 29
Full
Nov 7
Last Quarter
Nov 13
New

Hourly Weather History & Observations

Time (CEST) Temp. Windchill Dew Point Humidity Pressure Visibility Wind Dir Wind Speed Gust Speed Precip Events Conditions
12:00 AM 46.4 °F - 46.4 °F 100% 29.89 in 3.1 mi Variable 1.2 mph - N/A   Scattered Clouds
12:30 AM 48.2 °F - 48.2 °F 100% 29.89 in 3.1 mi Variable 1.2 mph - N/A   Scattered Clouds
1:00 AM 48.2 °F - 48.2 °F 100% 29.89 in 3.1 mi Variable 2.3 mph - N/A   Scattered Clouds
1:30 AM 46.4 °F - 46.4 °F 100% 29.89 in 3.1 mi Variable 2.3 mph - N/A   Scattered Clouds
2:00 AM 46.4 °F 44.3 °F 46.4 °F 100% 29.89 in 3.1 mi SE 4.6 mph - N/A   Scattered Clouds
2:30 AM 46.4 °F 44.3 °F 46.4 °F 100% 29.89 in 3.1 mi ESE 4.6 mph - N/A   Scattered Clouds
3:00 AM 46.4 °F 44.3 °F 46.4 °F 100% 29.92 in 3.1 mi SE 4.6 mph - N/A   Scattered Clouds
3:30 AM 46.4 °F - 46.4 °F 100% 29.92 in 3.1 mi Variable 2.3 mph - N/A   Scattered Clouds
4:00 AM 46.4 °F 45.2 °F 46.4 °F 100% 29.89 in 3.1 mi ESE 3.5 mph - N/A   Scattered Clouds
4:30 AM 44.6 °F 42.2 °F 44.6 °F 100% 29.89 in 3.1 mi SE 4.6 mph - N/A   Scattered Clouds
5:00 AM 44.6 °F - 44.6 °F 100% 29.89 in 3.1 mi Variable 2.3 mph - N/A   Scattered Clouds
5:30 AM 42.8 °F 41.1 °F 42.8 °F 100% 29.89 in 3.1 mi SE 3.5 mph - N/A   Scattered Clouds
6:00 AM 42.8 °F - 42.8 °F 100% 29.89 in 3.1 mi Variable 1.2 mph - N/A   Scattered Clouds
6:30 AM 44.6 °F - 44.6 °F 100% 29.89 in 3.1 mi Variable 2.3 mph - N/A   Scattered Clouds
7:00 AM 42.8 °F - 42.8 °F 100% 29.89 in 3.1 mi Calm Calm - N/A   Scattered Clouds
7:30 AM 44.6 °F - 44.6 °F 100% 29.92 in 3.1 mi Variable 2.3 mph - N/A   Scattered Clouds
8:00 AM 42.8 °F 41.1 °F 42.8 °F 100% 29.92 in 3.1 mi ESE 3.5 mph - N/A   Scattered Clouds
8:30 AM 42.8 °F - 42.8 °F 100% 29.89 in 3.1 mi Variable 2.3 mph - N/A   Partly Cloudy
9:00 AM 42.8 °F 40.1 °F 42.8 °F 100% 29.92 in 5.6 mi ESE 4.6 mph - N/A   Partly Cloudy
9:30 AM 44.6 °F 41.4 °F 44.6 °F 100% 29.92 in 6.2 mi ESE 5.8 mph - N/A   Partly Cloudy
10:00 AM 46.4 °F 44.3 °F 46.4 °F 100% 29.92 in 6.2 mi ESE 4.6 mph - N/A   Partly Cloudy
10:30 AM 48.2 °F - 48.2 °F 100% 29.95 in 6.2 mi Variable 2.3 mph - N/A   Partly Cloudy
11:00 AM 50.0 °F - 46.4 °F 87% 29.95 in 6.2 mi ESE 3.5 mph - N/A   Partly Cloudy
11:30 AM 51.8 °F - 48.2 °F 88% 29.95 in 6.2 mi SE 3.5 mph - N/A   Partly Cloudy
12:00 PM 53.6 °F - 48.2 °F 82% 29.95 in 6.2 mi SSE 4.6 mph - N/A   Partly Cloudy
12:30 PM 55.4 °F - 48.2 °F 77% 29.95 in 6.2 mi SE 4.6 mph - N/A   Partly Cloudy
1:00 PM 57.2 °F - 48.2 °F 72% 29.95 in 6.2 mi ESE 4.6 mph - N/A   Partly Cloudy
1:30 PM 59.0 °F - 46.4 °F 63% 29.95 in 6.2 mi Variable 2.3 mph - N/A   Partly Cloudy
2:00 PM 59.0 °F - 46.4 °F 63% 29.92 in 6.2 mi South 3.5 mph - N/A   Partly Cloudy
2:30 PM 60.8 °F - 46.4 °F 59% 29.92 in 6.2 mi South 3.5 mph - N/A   Partly Cloudy
3:00 PM 60.8 °F - 48.2 °F 63% 29.92 in 6.2 mi South 3.5 mph - N/A   Scattered Clouds
3:30 PM 60.8 °F - 48.2 °F 63% 29.92 in 6.2 mi Variable 2.3 mph - N/A   Scattered Clouds
4:00 PM 62.6 °F - 46.4 °F 55% 29.89 in 6.2 mi Variable 2.3 mph - N/A   Scattered Clouds
4:30 PM 60.8 °F - 48.2 °F 63% 29.89 in 6.2 mi Variable 2.3 mph - N/A   Scattered Clouds
5:00 PM 60.8 °F - 48.2 °F 63% 29.89 in 6.2 mi Variable 1.2 mph - N/A   Scattered Clouds
5:30 PM 62.6 °F - 48.2 °F 59% 29.89 in 6.2 mi Variable 2.3 mph - N/A   Scattered Clouds
6:00 PM 62.6 °F - 48.2 °F 59% 29.89 in 6.2 mi WSW 3.5 mph - N/A   Scattered Clouds
6:30 PM 60.8 °F - 48.2 °F 63% 29.89 in 6.2 mi Variable 1.2 mph - N/A   Scattered Clouds
7:00 PM 59.0 °F - 46.4 °F 63% 29.92 in 6.2 mi West 3.5 mph - N/A   Scattered Clouds
7:30 PM 57.2 °F - 46.4 °F 67% 29.92 in 6.2 mi West 3.5 mph - N/A   Scattered Clouds
8:00 PM 55.4 °F - 46.4 °F 72% 29.92 in 6.2 mi WSW 3.5 mph - N/A   Partly Cloudy
8:30 PM 53.6 °F - 46.4 °F 77% 29.92 in - Variable 1.2 mph - N/A   Clear
9:00 PM 53.6 °F - 44.6 °F 72% 29.92 in - Variable 2.3 mph - N/A   Clear
9:30 PM 51.8 °F - 44.6 °F 76% 29.92 in - Calm Calm - N/A   Clear
10:30 PM 50.0 °F - 46.4 °F 87% 29.92 in - Variable 2.3 mph - N/A   Clear
11:00 PM 50.0 °F - 46.4 °F 87% 29.92 in - Variable 2.3 mph - N/A   Clear
11:30 PM 50.0 °F - 46.4 °F 87% 29.92 in - Variable 2.3 mph - N/A   Clear